Starlink 5477

operational
NORAD ID: 55659 Int'l Des: 2023-021 Owner: SPXS Country: US Constellation: starlink
LEOCIRCULAR

About Starlink 5477

Description loading...

Live Position

Loading 3D Globe...

Upcoming Passes

Altitude History

Altitude vs Time

uPlot chart will show altitude changes over time

Two-Line Element Set

1 55659U 23021AH 26062.49752632 .00000735 00000-0 69366-4 0 9991
2 55659 70.0017 180.2040 0002519 263.5320 96.5552 14.98324778168347
Epoch: Mar 3, 2026 • Age: 25 hours

Current Status

Altitude 582.6 km
Velocity 7.57 km/s
Sub-Earth Point 57.50°N, 143.21°E
Launch Date Feb 17, 2023
Age 3 years
Type internet

Technical Details

Classification Payload
Mass 305.00 kg
Dry Mass 290.00 kg
Total Mass 305.00 kg
Length 0.20 m
Diameter 2.80 m
Span 9.00 m
Shape Box + pan
Manufacturer SPXS
Bus Type Starlink
Phase Status In Orbit
Owner/State SPXS/US

Large Constellations

Loading constellations...